Theta_e
338 339 338 334 338 337 336 338 334 333 334 331 331 330 325 326 330 330 331 331 331 332 332 331 329 329 327 327 327 326 327 328 328 328 328 327 324 324 326 327 327 326 326 327 327 326 325 328 332 332 332 332 331 332 331 331 331 330 331 330 330 330
337 339 338 336 338 336 336 337 335 334 334 332 332 331 326 327 331 331 332 332 332 332 332 332 331 331 328 327 328 327 327 327 327 328 328 328 327 326 326 327 327 327 326 327 327 327 327 329 331 331 332 332 332 332 331 330 331 331 331 331 331 330
338 339 338 337 338 336 336 336 335 336 335 333 334 332 330 330 331 331 333 333 333 333 333 333 332 332 329 328 329 329 329 327 327 327 328 328 327 327 326 327 326 326 326 327 327 327 327 330 331 331 331 331 332 332 331 331 331 331 331 330 331 329
338 338 338 337 337 337 337 337 338 339 337 335 336 335 332 330 329 330 332 333 334 334 335 334 334 334 331 330 330 331 330 329 328 328 328 327 328 328 328 329 327 326 326 327 328 328 328 329 331 331 331 331 331 331 330 331 330 331 331 330 329 328
335 336 336 334 335 337 337 336 337 340 338 336 337 335 332 330 329 330 332 332 334 336 337 336 335 335 334 332 331 332 332 331 330 329 329 328 328 328 329 330 329 327 327 327 328 328 329 329 330 331 331 331 330 330 330 329 330 330 330 329 328 327
335 337 336 333 335 337 338 336 336 337 338 337 336 335 333 330 329 330 331 332 334 335 336 337 337 336 335 335 333 332 333 332 332 330 329 329 328 327 328 328 328 328 328 327 327 327 327 328 328 329 331 332 331 330 329 328 329 330 329 329 328 326
336 337 336 336 336 336 337 337 336 337 338 336 334 334 333 331 330 330 331 332 333 334 335 335 336 336 336 336 335 334 333 333 333 331 330 329 327 326 328 328 328 328 328 327 327 327 327 327 328 329 331 333 331 329 329 329 329 330 329 329 328 325
334 334 333 335 337 337 337 337 337 338 337 334 332 333 332 331 331 331 331 332 332 333 335 334 333 333 335 335 336 335 335 334 332 330 328 328 327 325 327 328 328 328 328 328 328 328 328 327 327 328 332 333 331 330 329 330 329 330 329 329 329 326
332 330 330 333 335 337 338 336 337 338 336 335 333 332 331 332 332 332 332 333 334 333 334 333 333 334 334 335 336 335 334 335 334 331 328 327 327 327 327 328 328 328 329 329 329 329 328 327 327 329 332 332 332 332 331 331 330 330 330 329 330 328
331 331 331 332 333 336 337 336 337 336 334 335 335 332 332 332 332 332 332 333 334 333 334 335 335 335 334 335 336 334 334 334 334 331 330 328 328 328 329 327 328 329 330 331 330 329 328 327 328 329 331 332 332 332 332 333 332 331 331 331 331 329
331 332 333 334 333 335 337 336 336 336 334 335 335 332 332 332 332 332 331 332 332 332 334 336 336 336 336 336 335 334 333 334 332 330 329 329 328 329 330 328 328 330 331 332 330 329 328 328 328 329 330 331 331 330 330 332 332 332 331 330 331 330
330 332 333 335 334 335 337 337 336 336 335 335 334 333 333 333 334 334 333 333 333 333 333 335 336 336 335 335 334 333 333 333 332 331 330 329 328 330 331 329 329 330 331 331 330 328 328 328 327 328 329 330 330 329 330 332 332 331 330 329 329 328
331 331 332 333 333 335 336 336 337 336 336 336 336 336 336 336 336 337 337 336 335 334 335 336 336 335 334 335 334 333 333 332 332 332 332 330 329 331 332 331 330 331 331 331 330 329 328 328 327 327 328 329 329 330 332 332 332 331 331 330 327 325
331 330 330 331 332 333 334 336 337 337 337 337 338 338 337 337 337 337 337 336 335 335 336 336 335 334 334 335 335 334 333 332 331 332 332 330 330 331 332 333 332 331 330 330 331 330 328 328 328 327 327 328 328 329 330 331 331 331 331 331 328 327
331 330 329 330 332 335 337 338 338 338 338 339 337 336 335 334 334 334 333 333 333 334 335 334 334 334 334 335 335 334 333 332 332 332 331 330 330 330 331 333 333 331 331 331 330 330 328 327 328 328 327 328 328 328 329 330 330 330 331 331 330 330
332 330 331 332 334 338 340 340 339 339 339 338 335 333 332 332 332 332 332 332 332 334 334 334 334 335 335 335 334 333 332 333 334 333 332 330 330 330 331 332 332 331 330 331 331 330 329 328 328 328 328 328 328 328 329 328 328 328 329 329 330 330
333 332 332 334 337 340 340 339 338 337 336 334 332 331 332 333 333 333 332 332 333 334 334 333 334 335 336 335 333 333 332 333 334 333 332 331 331 332 333 332 331 330 330 330 331 330 329 329 328 328 328 328 328 328 328 328 327 327 326 326 327 328
334 334 335 337 339 340 339 337 335 334 333 332 332 331 331 332 332 332 332 331 332 334 334 334 334 334 335 334 333 333 332 333 334 333 333 333 333 333 333 332 329 328 329 330 330 330 329 329 328 328 328 327 327 327 327 326 326 325 325 324 324 325
334 336 338 339 339 339 337 335 333 332 332 332 331 330 329 330 330 330 330 330 332 334 333 333 334 333 333 333 333 333 331 332 332 332 333 332 332 332 331 332 328 326 328 329 329 330 329 328 328 328 328 327 327 327 327 325 324 324 323 322 322 323
336 338 338 338 338 337 336 334 332 332 332 332 329 327 328 330 329 330 330 330 332 333 332 333 333 333 333 334 333 332 331 330 330 331 332 331 330 330 330 331 328 325 326 328 329 329 328 328 328 329 328 328 328 329 328 327 325 323 322 321 320 320
337 336 336 337 336 335 334 332 332 332 332 330 326 326 328 330 330 330 330 330 330 330 330 331 332 332 332 333 333 332 331 331 331 331 332 331 329 329 330 330 328 326 327 329 328 328 327 328 328 328 329 328 328 328 328 328 326 323 320 320 320 321
338 336 335 335 333 333 332 331 332 332 331 328 325 325 328 330 330 330 330 330 330 329 329 330 331 330 330 332 331 331 331 331 331 331 330 330 329 329 329 328 327 327 328 328 328 328 327 328 328 329 330 329 328 328 328 328 326 322 319 319 320 321
337 335 335 334 332 331 331 331 331 330 330 327 324 326 328 329 329 329 329 329 329 329 330 330 331 330 329 330 329 330 330 330 330 330 330 329 329 329 328 327 327 326 327 327 327 327 327 327 328 328 330 330 329 328 328 328 326 321 319 319 320 320
336 334 334 333 331 331 332 333 331 329 328 325 323 325 328 328 328 328 327 327 327 327 328 329 330 329 328 328 327 328 329 329 329 329 330 330 330 329 329 329 327 326 327 327 327 326 326 326 327 328 329 328 328 328 327 328 327 322 318 319 319 318
334 333 333 332 330 331 333 332 330 329 327 324 324 324 325 325 325 325 324 324 323 323 323 324 325 326 325 324 323 324 325 325 326 328 329 329 329 329 329 329 328 328 328 328 327 326 326 326 327 327 328 328 328 328 327 327 327 323 319 318 317 315
332 331 332 331 331 331 332 330 329 327 325 324 324 323 322 321 321 321 321 321 320 319 319 319 321 323 322 321 321 321 321 322 323 326 328 328 328 328 328 328 328 328 328 329 328 327 326 326 326 326 326 326 326 327 328 327 326 324 321 319 317 315
332 331 331 331 331 330 330 329 328 325 323 323 323 320 320 320 320 320 320 319 318 318 318 319 321 323 322 322 322 322 323 323 323 325 327 327 327 327 327 327 327 328 328 328 328 328 327 325 326 326 326 326 325 324 325 326 326 324 322 319 315 314
330 330 329 329 329 328 328 328 326 324 322 321 321 320 319 320 320 319 319 318 318 318 318 319 320 322 323 322 321 321 323 324 323 323 325 326 327 327 327 327 327 327 327 327 328 327 326 326 326 326 326 326 326 325 324 325 326 325 321 316 314 314
325 326 327 327 327 327 327 326 325 323 322 321 320 319 319 319 319 319 318 318 318 318 318 318 319 322 324 322 318 318 321 323 323 323 324 324 325 326 326 327 327 327 326 327 328 327 327 326 326 326 326 326 326 325 323 322 322 321 318 314 313 315
322 323 325 326 326 326 326 325 324 323 321 320 319 319 319 318 318 318 318 318 318 318 318 318 318 320 321 320 318 319 321 323 323 323 324 324 324 325 326 327 327 327 327 327 327 327 326 326 326 326 325 324 323 322 320 318 316 314 313 313 314 315
321 322 324 325 325 325 325 324 324 323 321 319 318 317 317 318 318 317 317 317 317 317 317 317 318 318 319 318 318 319 320 322 322 322 322 323 323 324 324 325 326 327 327 327 327 327 326 325 326 324 321 320 320 318 317 316 313 311 311 312 314 315
321 321 322 324 324 324 324 324 324 323 321 319 317 314 314 316 317 317 317 316 316 316 317 317 317 317 317 317 317 319 320 321 321 321 321 321 322 323 322 323 324 325 326 326 326 325 325 323 321 318 316 316 315 314 314 312 310 310 310 311 313 315
323 322 322 323 323 324 324 324 324 323 320 318 316 313 311 313 315 316 316 316 316 316 317 317 317 316 316 317 317 319 320 320 320 320 319 320 321 319 318 318 319 321 322 324 323 322 321 319 316 314 312 311 310 310 308 307 306 307 308 310 313 314
324 323 322 322 321 323 323 323 322 321 319 318 315 312 311 311 314 316 315 315 315 316 317 317 316 316 315 317 318 318 319 318 318 318 318 319 319 317 317 316 316 316 317 318 318 317 316 314 312 310 308 306 305 304 303 303 304 306 308 310 311 312
324 323 322 321 320 321 321 320 320 319 318 316 313 312 311 312 314 316 315 315 315 314 316 315 314 313 312 314 317 318 318 317 316 316 316 316 316 315 315 313 312 311 312 313 313 311 310 307 305 304 303 302 301 301 301 303 305 308 309 309 309 311
324 324 323 321 321 322 321 320 320 319 317 315 314 313 313 314 316 316 316 315 314 314 314 313 312 311 310 310 313 314 314 313 312 312 312 314 314 313 310 307 307 308 309 309 307 305 304 302 301 301 300 300 301 303 304 305 307 307 307 307 307 310
325 324 322 320 321 321 321 321 320 318 317 316 315 315 315 315 316 316 316 316 315 313 312 313 312 311 309 308 309 310 309 307 305 305 307 309 309 307 304 304 305 306 306 305 303 301 300 300 300 299 300 300 303 305 306 306 307 306 307 306 307 308
Wind_Speed
17 21 29 29 27 26 23 22 21 19 18 17 17 16 16 16 15 14 13 13 12 12 11 11 10 9 8 8 8 8 8 8 8 8 8 7 7 8 8 8 7 6 6 6 6 8 11 12 12 9 9 10 9 8 7 6 5 4 4 4 5 5
19 21 27 26 24 25 24 23 22 19 17 16 17 16 16 16 16 15 14 13 13 12 11 11 11 10 9 9 8 8 7 7 7 7 7 6 6 7 8 7 6 6 6 6 6 7 10 12 12 10 9 9 9 8 7 5 4 3 3 3 4 5
20 21 24 24 23 23 24 24 21 19 18 16 17 16 16 17 17 16 14 13 12 12 11 11 10 9 9 9 8 8 8 7 7 6 6 6 6 6 7 6 7 7 6 6 5 6 9 11 11 10 8 8 8 8 7 5 4 3 3 3 3 4
21 21 23 24 22 21 21 22 19 17 17 17 17 17 17 17 17 15 13 12 11 12 11 11 10 9 9 8 8 8 7 7 6 6 6 5 5 6 6 5 6 7 7 6 5 5 6 8 10 10 7 6 7 8 7 6 4 3 2 2 2 3
20 18 20 22 22 21 20 21 19 16 16 17 16 16 17 17 16 14 12 11 10 10 11 11 10 10 9 8 8 7 6 7 6 6 5 4 4 5 5 5 6 7 6 6 6 5 5 7 9 8 6 5 6 7 7 6 5 3 1 1 1 1
19 18 18 20 21 18 17 18 19 18 17 16 16 16 17 16 15 14 13 11 10 10 10 10 9 9 9 8 8 7 6 6 6 5 4 4 3 3 4 4 5 5 5 5 5 5 5 6 7 6 4 3 4 6 7 5 4 3 1 0 1 0
16 17 14 14 18 17 15 16 18 18 18 17 16 16 16 15 15 14 13 11 10 9 9 8 7 7 8 8 8 7 6 5 5 5 4 4 3 3 3 4 4 4 5 5 5 5 5 5 6 5 3 3 3 5 6 5 5 4 2 1 2 1
9 13 10 8 11 12 13 15 16 17 17 17 16 15 15 14 14 14 13 11 10 9 7 6 6 6 7 7 6 5 5 6 5 5 4 4 3 3 3 3 4 4 4 5 5 5 5 5 6 5 3 3 4 5 5 4 5 5 3 1 2 1
8 13 11 9 9 8 11 14 14 13 15 16 15 15 14 14 14 13 13 11 10 8 7 6 5 4 5 5 5 3 4 6 7 6 5 5 4 4 4 4 5 5 5 5 4 5 5 6 6 5 3 3 4 4 3 3 4 4 3 1 2 2
12 15 13 14 14 10 10 13 11 11 14 13 13 15 14 14 14 12 12 11 10 8 6 5 4 3 3 3 3 3 3 5 7 7 6 5 4 5 5 6 6 6 6 5 5 6 7 7 7 5 4 4 3 3 3 4 3 4 2 2 2 2
16 17 17 17 17 13 12 11 9 10 13 11 11 15 14 14 13 11 11 10 9 8 6 5 4 3 3 3 3 2 3 5 6 7 6 5 5 5 6 7 7 8 7 6 7 9 10 10 8 6 5 5 3 2 3 3 2 5 3 2 3 3
19 19 18 17 17 16 13 10 9 9 10 10 12 13 13 13 12 11 10 10 10 9 7 5 5 4 4 4 4 3 3 4 6 7 7 6 6 5 6 7 8 8 7 6 7 10 11 11 9 6 4 5 4 3 2 2 1 3 5 3 2 3
22 20 19 18 17 16 14 10 9 9 10 12 12 10 10 11 11 10 9 10 10 8 8 8 8 6 4 3 3 3 4 5 7 9 8 8 8 5 5 7 8 8 7 6 7 8 9 9 8 6 5 4 4 3 2 2 3 2 1 3 3 2
23 22 21 19 16 14 14 11 9 10 12 13 11 9 8 7 7 7 7 8 7 6 9 10 9 6 4 4 4 4 5 5 8 10 9 9 8 6 5 5 7 8 7 6 6 7 8 7 7 7 6 5 4 3 1 1 1 2 1 1 3 4
24 24 21 17 14 12 13 13 12 12 12 11 9 7 5 4 5 5 5 6 4 4 8 9 7 7 6 6 5 5 6 5 7 9 9 9 9 9 7 5 5 7 7 6 6 6 7 8 7 7 7 6 5 4 3 2 1 1 0 1 2 4
25 24 20 16 13 11 11 11 12 11 11 9 6 3 1 1 2 2 2 2 2 3 6 7 7 7 7 6 5 6 6 5 7 9 10 11 10 9 7 6 6 6 7 7 6 5 6 7 8 6 6 6 5 5 4 3 3 3 3 2 2 2
26 23 19 17 14 12 10 9 9 9 9 6 2 1 1 1 1 1 1 2 3 4 5 6 6 6 6 6 6 6 5 5 7 8 8 9 8 6 6 9 11 8 8 8 7 6 7 7 7 6 6 6 6 5 4 3 2 2 3 3 2 2
21 22 20 19 15 12 10 9 9 8 6 4 2 1 1 1 1 1 2 2 3 3 5 6 6 6 6 7 6 6 5 5 8 8 7 7 6 5 5 8 11 10 9 7 7 7 8 8 6 6 6 6 6 5 3 2 1 1 2 3 2 1
20 22 21 19 16 13 11 10 10 8 6 4 3 2 1 2 2 2 2 2 3 4 5 6 6 7 7 7 7 6 5 6 8 9 7 6 5 5 5 6 9 11 7 5 5 6 7 7 6 5 5 5 4 3 2 3 2 2 3 3 3 2
20 22 22 21 19 17 14 12 11 9 7 6 6 5 4 5 6 5 5 5 7 7 6 6 6 7 8 7 7 8 8 8 9 8 7 6 6 5 6 6 8 11 8 4 4 5 5 6 6 5 4 3 3 3 4 4 4 5 5 4 3 3
19 22 23 23 22 21 18 15 12 10 10 10 8 6 6 7 8 9 9 10 10 9 7 6 6 7 8 8 9 9 8 8 7 6 5 6 6 6 7 8 8 10 8 7 6 5 5 7 7 6 4 3 3 3 3 3 4 6 6 4 4 3
19 21 22 24 23 21 18 16 13 11 12 12 9 6 7 9 10 11 11 10 10 10 8 7 6 6 8 8 8 8 7 6 5 5 5 6 7 8 8 7 8 8 8 8 6 6 7 7 6 5 4 3 3 2 3 4 5 6 7 6 5 4
19 20 21 21 20 18 16 14 13 13 13 12 10 7 9 11 12 12 12 12 11 10 8 7 8 9 10 9 8 8 7 6 6 5 6 6 7 8 8 7 7 7 7 7 6 6 7 6 4 4 4 3 2 2 3 5 6 9 9 8 7 5
18 19 19 18 16 15 15 14 13 14 12 11 10 10 11 13 13 14 14 14 13 11 9 8 9 10 11 11 10 9 8 6 6 6 6 6 6 7 7 7 8 9 8 7 6 6 7 7 5 5 3 1 1 2 2 4 7 10 11 11 11 9
18 18 18 17 16 16 16 16 15 14 12 11 11 10 12 13 13 14 14 13 12 10 9 8 8 9 10 11 10 9 8 6 6 6 6 6 7 7 7 7 8 9 9 9 8 7 7 7 7 7 4 2 1 1 2 6 7 7 10 12 11 10
21 20 20 18 17 18 18 18 17 16 14 13 11 10 11 11 11 11 12 11 10 8 7 6 6 7 8 9 8 7 7 6 6 5 5 5 6 7 7 7 8 9 8 8 9 8 7 6 6 7 7 4 3 2 4 6 5 5 8 10 11 12
25 22 21 20 19 19 18 18 17 15 14 13 12 11 11 10 9 9 9 9 9 8 8 7 6 6 7 7 6 7 6 5 5 5 5 5 6 7 7 8 8 9 8 7 7 7 7 8 6 5 5 4 3 5 7 6 4 5 7 7 11 15
24 23 22 21 20 19 18 18 17 14 13 13 12 13 12 10 8 8 9 9 9 9 8 7 6 6 6 6 5 5 4 4 5 6 7 7 7 7 7 7 7 7 7 6 6 6 7 9 8 7 5 4 4 6 7 5 5 6 6 6 8 12
19 21 22 22 21 19 18 17 16 14 14 13 12 13 13 10 9 7 7 8 8 8 8 6 6 6 7 6 4 3 3 4 5 7 8 9 8 7 6 6 6 6 7 7 5 5 7 8 9 9 7 6 6 7 8 7 6 6 7 6 6 7
14 17 20 22 22 20 18 17 15 14 13 13 13 13 12 11 10 8 7 7 6 6 6 6 6 5 6 5 3 3 4 6 7 8 9 9 8 7 7 6 6 7 8 8 6 6 7 8 8 9 8 9 9 9 8 7 7 7 6 6 7 8
6 12 16 19 21 21 20 18 15 12 10 10 11 12 12 11 10 9 8 8 6 5 5 6 6 5 5 4 3 4 6 8 8 9 9 8 8 8 9 9 8 8 8 8 8 8 8 8 9 10 10 9 8 7 7 6 6 6 7 8 8 8
1 5 10 14 19 21 20 19 16 13 10 8 8 9 10 10 9 9 9 8 7 7 7 7 7 6 5 4 4 4 6 8 8 8 8 7 9 11 12 13 12 12 11 11 12 12 12 13 13 14 12 10 9 8 7 7 7 6 7 9 11 10
8 6 10 17 21 23 21 20 18 15 12 8 7 7 8 8 8 9 9 8 8 8 9 8 7 6 5 4 4 5 6 6 7 7 7 8 10 12 13 14 14 15 15 15 15 15 15 16 15 14 13 11 11 10 10 10 10 9 9 11 12 11
20 17 20 21 20 19 19 19 19 17 14 11 9 8 7 7 8 8 8 8 8 9 9 8 7 6 5 4 4 5 5 5 6 6 7 8 10 12 12 12 13 14 15 15 15 14 15 14 13 12 12 13 13 13 13 12 11 10 10 10 12 13
29 28 25 19 13 13 15 18 19 18 15 13 12 11 9 8 8 7 7 7 7 8 8 7 7 6 4 4 5 5 4 4 5 6 8 9 10 10 9 10 12 12 13 13 13 12 12 12 12 12 13 14 15 14 14 14 13 12 10 10 12 14
33 30 25 19 17 19 20 20 20 19 17 15 14 13 11 10 9 7 7 7 6 7 7 6 6 5 4 4 5 5 4 4 5 6 8 9 9 8 8 9 11 12 13 12 12 12 13 13 13 13 13 14 15 15 15 15 15 15 15 14 12 11
32 27 23 22 24 26 24 19 17 17 16 14 13 12 11 9 7 8 9 8 6 6 6 5 5 4 4 5 6 5 5 5 6 6 7 7 7 7 9 10 12 12 12 12 13 13 13 13 13 14 14 16 17 16 16 15 14 15 16 17 15 11
Wind_Direction
164 152 156 166 166 167 169 170 172 170 167 165 163 164 164 164 162 163 166 166 162 156 152 149 145 142 141 136 133 130 128 133 139 144 140 132 128 124 127 131 127 114 100 99 124 145 144 135 134 148 163 171 176 176 175 167 157 151 154 159 150 156
155 150 157 166 166 168 171 175 178 174 169 165 165 167 166 169 171 172 174 173 170 165 161 158 154 152 149 142 139 139 135 134 135 139 141 137 136 128 124 131 130 120 109 99 109 134 142 136 132 145 161 171 178 181 183 181 172 165 164 160 163 172
143 152 160 163 166 172 173 176 180 178 173 168 169 172 171 176 180 179 180 180 176 174 172 166 162 158 155 153 154 154 148 138 133 132 134 137 141 135 130 135 132 122 116 104 99 122 139 139 133 137 157 171 180 186 190 196 192 181 180 166 178 186
139 156 163 163 165 171 173 174 179 181 176 173 175 175 177 183 186 186 186 187 185 184 180 173 171 168 163 166 168 167 157 148 143 135 130 132 141 145 140 136 130 123 121 110 103 112 128 141 139 138 154 172 185 191 193 203 209 207 199 176 201 201
143 154 162 163 165 173 176 175 179 181 177 178 179 178 182 187 189 193 192 193 195 192 185 180 183 180 174 177 181 182 168 156 151 141 135 132 137 154 152 140 130 126 124 115 112 117 124 145 146 141 148 171 196 199 195 202 216 228 222 195 245 215
145 155 165 165 169 175 173 177 184 185 187 187 183 183 188 191 193 198 200 202 202 195 191 189 193 188 180 181 187 193 184 164 153 147 146 144 144 160 167 161 143 130 125 116 115 121 132 154 156 145 140 151 193 199 192 199 221 244 265 302 317 283
148 159 166 169 173 173 168 180 193 193 196 194 188 189 191 194 197 201 206 209 207 203 199 196 198 190 182 183 187 194 195 179 160 157 154 153 156 159 172 173 156 139 127 119 115 120 130 158 163 148 137 121 135 175 185 204 232 253 284 352 353 18
151 158 162 176 178 173 172 185 198 199 199 195 193 194 194 197 202 205 208 211 214 213 206 201 203 194 184 182 182 185 194 193 178 171 166 161 159 154 163 163 157 144 125 114 109 113 126 157 164 149 152 131 121 148 175 210 239 262 286 346 16 21
161 160 166 189 194 194 189 193 199 197 199 199 199 200 200 202 204 206 208 211 216 218 218 216 215 206 188 174 170 165 178 190 186 182 177 166 154 150 154 145 142 135 116 103 96 106 129 161 167 154 161 155 141 159 189 227 248 267 289 11 45 37
174 172 184 193 198 213 209 204 201 199 203 203 204 206 206 208 208 209 211 213 218 223 226 222 222 217 191 161 161 168 168 183 186 183 179 168 152 148 151 141 137 128 109 95 85 105 133 161 171 166 180 191 175 187 233 248 262 276 310 52 56 46
189 187 195 193 196 210 216 212 205 206 209 207 209 210 212 215 214 215 216 219 226 231 232 229 238 223 178 159 175 198 184 186 192 183 174 163 150 150 149 143 140 129 113 105 101 118 137 154 165 167 184 193 182 193 241 246 274 279 279 36 40 47
193 192 193 191 195 203 212 215 212 213 212 213 218 216 219 222 224 227 227 229 231 235 240 236 233 205 178 184 193 215 212 201 206 196 178 161 157 160 154 147 142 129 123 125 119 125 136 142 145 146 160 172 173 176 192 179 187 256 256 279 339 28
191 193 191 191 195 201 207 210 212 215 217 224 229 232 232 228 232 236 238 239 230 228 239 240 233 213 191 215 214 215 225 213 207 200 185 168 161 162 165 153 142 137 143 146 130 127 132 130 126 128 140 145 152 154 140 137 128 139 219 275 262 276
191 192 189 190 193 199 205 209 216 220 222 228 237 249 256 251 251 251 259 263 251 235 240 244 240 226 214 228 221 213 225 214 201 197 186 177 169 167 175 159 147 155 166 165 151 139 135 135 130 131 137 136 147 157 156 176 117 122 139 277 223 242
189 190 188 187 191 201 210 217 227 230 228 233 244 258 273 284 284 279 278 277 269 230 233 243 233 219 218 215 207 212 220 208 195 194 187 186 187 181 178 168 165 174 175 173 167 151 137 141 144 138 133 129 137 144 150 163 71 62 296 275 231 249
192 191 187 187 195 207 210 215 225 232 230 233 239 252 315 313 300 279 264 254 239 193 214 239 230 215 215 208 205 213 215 201 190 193 193 193 196 192 184 175 175 182 187 185 178 160 141 142 148 143 138 138 138 131 121 108 83 57 34 19 323 300
195 191 186 190 199 202 193 193 205 212 211 208 192 71 11 307 315 216 180 193 206 189 197 223 228 215 209 207 204 207 208 189 182 188 192 191 191 194 184 172 171 185 203 189 174 162 146 142 150 146 144 152 151 142 128 106 81 53 36 29 16 4
188 184 185 191 191 184 174 173 180 181 175 157 122 74 335 319 4 146 169 191 186 174 185 196 205 198 196 201 192 197 199 175 171 174 175 179 186 196 193 179 172 185 207 190 167 164 156 150 155 153 150 154 151 144 142 129 93 52 41 25 18 4
176 175 178 180 174 170 167 167 166 160 151 135 126 124 90 63 61 92 129 154 125 130 162 171 175 176 179 188 182 185 182 164 166 163 158 162 175 191 202 190 158 155 183 198 172 166 161 152 148 146 150 155 147 130 119 115 106 75 58 42 37 26
175 169 168 168 164 167 167 163 160 154 145 135 129 118 93 86 85 88 97 101 102 112 137 146 150 156 162 172 170 170 169 166 164 155 150 156 167 184 192 180 141 138 160 176 151 154 155 146 134 127 137 152 130 101 92 94 87 74 67 58 53 43
175 167 164 163 164 169 170 166 161 155 146 134 123 104 90 91 94 98 100 97 97 101 114 130 141 147 154 159 152 152 158 160 157 151 149 147 156 174 182 173 144 136 153 153 141 147 149 144 140 136 139 143 118 94 84 83 75 70 70 64 53 38
175 170 167 166 166 168 170 169 165 158 148 132 117 103 101 101 104 107 106 101 99 101 106 117 128 138 148 150 144 145 151 154 163 167 153 137 141 156 168 174 162 146 145 147 148 155 158 158 161 164 164 155 143 119 86 86 77 66 72 76 64 44
178 172 170 169 165 166 169 171 168 160 149 131 119 115 112 112 111 110 107 103 101 103 107 110 115 124 130 131 131 139 143 145 158 159 143 133 137 151 162 173 180 170 154 149 152 168 183 189 181 170 173 174 165 145 108 93 75 65 73 79 75 69
180 173 174 172 166 169 172 171 168 160 149 134 126 123 118 117 115 109 104 100 97 95 96 100 107 113 115 113 113 122 129 130 134 135 134 137 143 158 169 175 180 175 165 158 159 176 196 200 189 171 166 133 126 173 135 105 83 72 79 81 78 79
181 176 176 175 175 179 174 169 163 152 144 133 129 130 123 119 116 111 104 98 92 86 83 87 96 104 108 108 108 114 120 120 121 128 136 145 152 159 168 176 178 174 171 166 163 168 181 193 193 187 178 133 135 196 134 127 117 87 83 78 72 71
181 179 181 182 185 183 176 170 163 154 148 138 132 133 128 123 119 113 106 98 92 87 84 84 92 105 110 108 109 112 113 115 117 129 145 149 151 154 158 165 165 164 165 160 157 157 160 172 182 187 190 190 193 177 141 148 153 119 97 75 64 67
181 183 185 186 186 182 175 172 169 163 156 147 139 137 134 129 124 115 108 103 100 101 98 98 104 116 121 115 112 115 114 114 115 126 145 147 146 148 151 156 156 156 157 154 155 155 156 159 155 163 178 182 171 155 148 156 166 149 127 85 68 73
182 184 185 183 182 181 179 176 173 163 153 150 144 141 139 132 123 115 107 105 108 109 105 103 107 121 135 128 109 110 117 117 115 121 129 134 139 142 147 152 153 154 155 155 160 158 158 161 154 145 143 140 138 142 144 145 152 151 142 118 91 84
179 181 183 183 181 182 186 184 175 160 152 151 146 141 139 132 126 119 107 105 108 111 111 112 114 123 137 132 108 98 114 126 125 122 124 127 130 132 139 148 153 157 155 155 157 154 153 155 152 147 144 139 128 120 116 112 118 123 124 129 125 113
177 179 181 182 182 183 187 187 178 166 157 152 149 145 140 135 133 128 122 119 115 114 117 123 125 125 131 131 120 110 121 135 136 127 125 128 128 127 131 139 149 156 158 154 146 142 143 141 144 148 146 139 131 125 121 115 115 117 118 125 129 131
164 183 185 183 183 184 185 186 181 174 166 155 152 152 147 143 139 135 134 132 130 127 124 128 128 125 125 118 110 115 125 134 136 130 127 124 120 118 119 124 130 137 146 149 140 134 134 131 134 142 144 140 136 133 133 130 132 135 134 135 136 135
129 197 196 192 189 186 184 183 180 177 172 161 157 156 152 149 144 141 140 138 135 129 126 129 128 126 124 112 108 117 124 129 131 132 130 120 116 115 115 116 118 121 125 131 133 131 129 129 133 138 138 135 129 122 120 123 128 134 138 141 141 137
194 198 209 211 202 192 187 183 179 175 171 165 161 156 150 149 147 145 142 140 139 132 129 131 132 130 124 117 123 126 126 127 129 133 130 121 119 117 115 115 115 116 116 120 125 127 128 131 135 136 134 130 124 118 117 120 123 124 126 135 138 135
186 194 210 214 202 187 181 181 179 174 169 164 157 152 147 147 150 150 149 147 143 137 135 137 137 132 126 129 137 138 140 142 141 142 136 130 127 123 119 119 119 118 118 121 126 128 130 134 136 134 133 130 124 119 116 117 118 120 126 133 138 137
191 199 205 202 191 183 178 177 177 172 166 160 154 149 148 152 156 161 163 161 151 142 140 145 144 136 133 144 151 156 160 156 151 145 140 137 134 129 125 125 126 125 125 128 131 133 134 134 132 130 131 128 122 118 116 115 111 108 114 128 139 143
199 202 197 188 196 205 197 185 178 173 166 159 153 150 150 154 161 176 182 177 164 149 149 158 155 143 141 149 154 160 164 160 153 145 145 145 138 134 132 129 129 129 130 133 134 133 131 130 129 129 130 127 122 118 115 112 107 102 102 112 128 142
203 202 192 193 206 208 198 180 165 157 148 144 144 141 143 149 160 183 194 195 184 163 165 183 179 164 153 149 146 147 147 143 138 135 138 140 135 131 129 127 128 127 130 132 130 128 128 129 130 129 129 126 121 118 114 108 103 100 98 99 104 109